Weather History for Milford, UT

Change the Weather History Date:

Tuesday, February 5, 2013

  Actual Average Record
Temperature  
Mean Temperature 38 °F -  
Max Temperature 55 °F 40 °F 62 °F (2001)
Min Temperature 21 °F 17 °F 7 °F (2002)
Degree Days  
Heating Degree Days 27    
Moisture  
Dew Point 23 °F    
Average Humidity 59    
Maximum Humidity 92    
Minimum Humidity 15    
Precipitation  
Precipitation 0.00 in - - ()
Sea Level Pressure  
Sea Level Pressure 30.03 in    
Wind  
Wind Speed 7 mph (South)    
Max Wind Speed 21 mph    
Max Gust Speed 23 mph    
Visibility 10 miles    
Events      
Averages and records for this station are not official NWS values.
T = Trace of Precipitation, MM = Missing Value Source: NWS Daily Summary

Daily Weather History Graph

Daily Weather History Graph

Search for Another Location

Airport:

Trip Planner

Search our weather history database for the weather conditions in past years. The results will help you decide how hot, cold, wet, or windy it might be!

Date:

Astronomy

Feb. 05, 2013 Rise Set
Actual Time 7:33 AM MST 5:59 PM MST
Civil Twilight 7:05 AM MST 6:27 PM MST
Nautical Twilight 6:34 AM MST 6:58 PM MST
Astronomical Twilight 6:03 AM MST 7:29 PM MST
Moon 3:17 AM MST (2/5) 1:22 PM MST (2/5)
Length of Visible Light 11h 21m
Length of Day
10h 26m
Waning Crescent, 26% of the Moon is Illuminated
Feb 5
Waning Crescent
Feb 10
New
Feb 17
First Quarter
Feb 25
Full
Mar 4
Last Quarter

Hourly Weather History & Observations

Time (MST) Temp. Windchill Dew Point Humidity Pressure Visibility Wind Dir Wind Speed Gust Speed Precip Events Conditions
12:52 AM 23.0 °F 17.0 °F 19.9 °F 88% 30.17 in 8.0 mi North 4.6 mph - N/A   Clear
1:52 AM 24.1 °F - 21.9 °F 91% 30.14 in 8.0 mi Calm Calm - N/A   Clear
2:52 AM 23.0 °F - 19.9 °F 88% 30.14 in 8.0 mi Calm Calm - N/A   Clear
3:52 AM 23.0 °F 17.0 °F 19.9 °F 88% 30.13 in 10.0 mi West 4.6 mph - N/A   Clear
4:52 AM 21.9 °F 12.5 °F 19.9 °F 92% 30.14 in 10.0 mi SSW 8.1 mph - N/A   Clear
5:52 AM 21.9 °F 17.2 °F 19.0 °F 89% 30.14 in 10.0 mi South 3.5 mph - N/A   Clear
6:52 AM 23.0 °F 13.1 °F 19.9 °F 88% 30.15 in 10.0 mi SSW 9.2 mph - N/A   Clear
7:52 AM 21.9 °F 15.7 °F 19.0 °F 89% 30.16 in 9.0 mi South 4.6 mph - N/A   Clear
8:52 AM 30.9 °F 23.5 °F 26.1 °F 82% 30.13 in 10.0 mi South 8.1 mph - N/A   Clear
9:52 AM 35.1 °F 27.9 °F 28.9 °F 78% 30.12 in 10.0 mi South 9.2 mph - N/A   Clear
10:52 AM 39.0 °F 34.0 °F 25.0 °F 57% 30.11 in 10.0 mi South 6.9 mph - N/A   Clear
11:52 AM 44.1 °F 40.1 °F 26.1 °F 49% 30.08 in 10.0 mi South 6.9 mph - N/A   Clear
12:52 PM 46.9 °F - 26.1 °F 44% 30.03 in 10.0 mi SSW 8.1 mph - N/A   Clear
1:52 PM 52.0 °F - 27.0 °F 38% 29.97 in 10.0 mi SSW 11.5 mph - N/A   Clear
2:52 PM 54.0 °F - 26.1 °F 34% 29.94 in 10.0 mi South 12.7 mph - N/A   Clear
3:52 PM 57.0 °F - 26.1 °F 30% 29.91 in 10.0 mi South 20.7 mph - N/A   Clear
4:52 PM 55.9 °F - 21.9 °F 27% 29.90 in 10.0 mi South 17.3 mph 23.0 mph N/A   Clear
5:52 PM 48.0 °F - 26.1 °F 42% 29.92 in 10.0 mi SSW 9.2 mph - N/A   Clear
6:52 PM 46.9 °F - 25.0 °F 42% 29.92 in 10.0 mi South 13.8 mph - N/A   Clear
7:52 PM 46.9 °F - 23.0 °F 39% 29.93 in 10.0 mi South 13.8 mph - N/A   Clear
8:52 PM 45.0 °F 38.9 °F 23.0 °F 42% 29.91 in 10.0 mi South 12.7 mph - N/A   Clear
9:52 PM 41.0 °F 33.9 °F 24.1 °F 51% 29.91 in 10.0 mi South 12.7 mph - N/A   Clear
10:52 PM 39.0 °F 30.3 °F 25.0 °F 57% 29.90 in 10.0 mi South 16.1 mph - N/A   Clear
11:52 PM 42.1 °F 35.2 °F 23.0 °F 47% 29.87 in 10.0 mi SSW 12.7 mph - N/A   Clear